Lander, WY

10:45 PM MDT on September 26, 2016 (GMT -0600)
Hunt

Weather History for KLND - January, 2013

Change the Weather History Date:

Friday, January 11, 2013

  Actual Average Record
Temperature  
Mean Temperature 15 °F 22 °F  
Max Temperature 31 °F 33 °F 56 °F (1953)
Min Temperature -1 °F 10 °F -32 °F (1963)
Degree Days  
Heating Degree Days 50 43  
Month to date heating degree days 541 482  
Since 1 July heating degree days 3316 3728  
Cooling Degree Days 0 0  
Month to date cooling degree days 0 0  
Year to date cooling degree days 0 0  
Moisture  
Dew Point 5 °F    
Average Humidity 76    
Maximum Humidity 88    
Minimum Humidity 63    
Precipitation  
Precipitation 0.32 in 0.02 in 0.32 in (2013)
Month to date precipitation 0.32 0.16  
Year to date precipitation 0.32 0.16  
Snow  
Snow 5.40 in 0.20 in - ()
Month to date snowfall 5.4 2.8  
Since 1 July snowfall 21.1 38.5  
Snow Depth 6.00 in    
Sea Level Pressure  
Sea Level Pressure 29.68 in    
Wind  
Wind Speed 8 mph (ENE)    
Max Wind Speed 21 mph    
Max Gust Speed 24 mph    
Visibility 3 miles    
Events Fog , Snow    
T = Trace of Precipitation, MM = Missing Value Source: NWS Daily Summary

Daily Weather History Graph

Daily Weather History Graph

Search for Another Location

Airport or City:

Trip Planner

Search our weather history database for the weather conditions in past years. The results will help you decide how hot, cold, wet, or windy it might be!

Date:

Astronomy

Jan. 11, 2013 Rise Set
Actual Time 7:44 AM MST 5:02 PM MST
Civil Twilight 7:12 AM MST 5:33 PM MST
Nautical Twilight 6:37 AM MST 6:08 PM MST
Astronomical Twilight 6:03 AM MST 6:42 PM MST
Moon 7:18 AM MST (1/11) 5:25 PM MST (1/11)
Length of Visible Light 10h 20m
Length of Day
9h 17m
Waning Crescent, 0% of the Moon is Illuminated
Jan 11
Waning Crescent
Jan 11
New
Jan 18
First Quarter
Jan 26
Full
Feb 3
Last Quarter

Hourly Weather History & Observations

Time (MST) Temp. Windchill Dew Point Humidity Pressure Visibility Wind Dir Wind Speed Gust Speed Precip Events Conditions
12:53 AM 28.0 °F 19.3 °F 21.0 °F 75% 29.33 in 10.0 mi NW 9.2 mph - N/A   Clear
1:53 AM 25.0 °F 12.2 °F 19.9 °F 81% 29.35 in 10.0 mi NW 16.1 mph - N/A   Scattered Clouds
2:50 AM 24.8 °F 14.0 °F 19.4 °F 80% 29.32 in 10.0 mi NW 11.5 mph 21.9 mph N/A   Mostly Cloudy
2:53 AM 24.1 °F 14.4 °F 19.0 °F 81% 29.34 in 10.0 mi NW 9.2 mph - N/A   Mostly Cloudy
3:08 AM 24.8 °F 13.4 °F 19.4 °F 80% 29.33 in 10.0 mi NNW 12.7 mph 19.6 mph N/A   Overcast
3:53 AM 21.9 °F 10.4 °F 16.0 °F 78% 29.38 in 10.0 mi North 11.5 mph - N/A   Overcast
4:53 AM 19.0 °F 7.5 °F 12.9 °F 77% 29.39 in 4.0 mi NE 10.4 mph - 0.00 in Snow Light Snow
5:17 AM 17.6 °F 2.7 °F 12.2 °F 79% 29.38 in 1.8 mi NE 16.1 mph 23.0 mph 0.00 in Snow Light Snow
5:49 AM 15.8 °F 2.1 °F 12.2 °F 86% 29.41 in 0.8 mi NE 12.7 mph - 0.01 in Snow Light Snow
5:53 AM 15.1 °F 2.5 °F 12.0 °F 88% 29.49 in 0.8 mi NE 10.4 mph - 0.01 in Snow Light Snow
6:10 AM 15.8 °F 2.7 °F 10.4 °F 79% 29.39 in 1.0 mi NE 11.5 mph - 0.01 in Snow Light Snow
6:18 AM 14.0 °F 0.5 °F 10.4 °F 86% 29.41 in 0.8 mi NNE 11.5 mph - 0.01 in Snow Light Snow
6:53 AM 12.9 °F 1.6 °F 9.0 °F 84% 29.50 in 0.8 mi NE 8.1 mph - 0.04 in Snow Light Snow
7:53 AM 12.0 °F 0.5 °F 8.1 °F 84% 29.55 in 0.5 mi SE 8.1 mph - 0.04 in Fog , Snow Snow
8:53 AM 10.0 °F -5.2 °F 7.0 °F 87% 29.62 in 0.2 mi ENE 12.7 mph 17.3 mph 0.08 in Fog , Snow Snow
9:53 AM 10.0 °F - 5.0 °F 80% 29.69 in 0.2 mi Calm Calm - 0.05 in Snow Heavy Snow
10:40 AM 10.4 °F - 6.8 °F 85% 29.58 in 0.8 mi Calm Calm - 0.04 in Snow Light Snow
10:50 AM 10.4 °F - 6.8 °F 85% 29.59 in 1.0 mi Calm Calm - 0.04 in Snow Light Snow
10:53 AM 10.9 °F - 7.0 °F 84% 29.71 in 1.0 mi Calm Calm - 0.04 in Snow Light Snow
11:37 AM 12.2 °F 4.3 °F 6.8 °F 79% 29.59 in 0.8 mi East 4.6 mph - 0.00 in Snow Light Snow
11:53 AM 12.0 °F 2.7 °F 5.0 °F 73% 29.70 in 0.8 mi North 5.8 mph - 0.01 in Snow Light Snow
11:55 AM 10.4 °F -0.4 °F 5.0 °F 79% 29.58 in 1.0 mi NNE 6.9 mph - 0.00 in Snow Light Snow
12:18 PM 10.4 °F -1.5 °F 5.0 °F 79% 29.59 in 2.0 mi North 8.1 mph - 0.00 in Snow Light Snow
12:26 PM 10.4 °F -0.4 °F 5.0 °F 79% 29.58 in 1.5 mi NNE 6.9 mph - 0.00 in Snow Light Snow
12:35 PM 10.4 °F -2.4 °F 5.0 °F 79% 29.58 in 0.8 mi North 9.2 mph - 0.00 in Snow Light Snow
12:46 PM 10.4 °F -0.4 °F 3.2 °F 73% 29.58 in 1.0 mi North 6.9 mph - 0.00 in Snow Light Snow
12:53 PM 10.0 °F -0.9 °F 3.9 °F 76% 29.73 in 0.8 mi NNW 6.9 mph - 0.00 in Snow Light Snow
1:11 PM 10.4 °F - 3.2 °F 73% 29.60 in 0.8 mi Calm Calm - 0.00 in Snow Light Snow
1:21 PM 10.4 °F - 6.8 °F 85% 29.60 in 1.0 mi Calm Calm - 0.00 in Snow Light Snow
1:48 PM 10.4 °F 0.8 °F 6.8 °F 85% 29.62 in 0.8 mi East 5.8 mph - 0.00 in Snow Light Snow
1:53 PM 12.0 °F -1.3 °F 7.0 °F 80% 29.77 in 0.8 mi ENE 10.4 mph - 0.00 in Snow Light Snow
1:55 PM 10.4 °F -4.8 °F 5.0 °F 79% 29.62 in 1.0 mi ENE 12.7 mph - 0.00 in Snow Light Snow
2:00 PM 10.4 °F -6.0 °F 3.2 °F 73% 29.62 in 3.0 mi ENE 15.0 mph - 0.00 in Snow Light Snow
2:15 PM 8.6 °F -7.7 °F 3.2 °F 79% 29.63 in 2.5 mi ENE 13.8 mph - 0.00 in   Haze
2:27 PM 8.6 °F -7.7 °F 3.2 °F 79% 29.65 in 4.0 mi East 13.8 mph - 0.00 in   Haze
2:53 PM 8.1 °F -4.3 °F 1.0 °F 73% 29.84 in 4.0 mi ENE 8.1 mph - 0.00 in   Haze
3:00 PM 6.8 °F -7.8 °F -0.4 °F 72% 29.68 in 1.8 mi ENE 10.4 mph - 0.00 in Snow Light Snow
3:18 PM 6.8 °F -5.9 °F -0.4 °F 72% 29.69 in 2.0 mi NE 8.1 mph - 0.00 in   Haze
3:40 PM 6.8 °F -3.5 °F -0.4 °F 72% 29.70 in 5.0 mi NE 5.8 mph - 0.00 in   Haze
3:53 PM 7.0 °F -4.5 °F -2.0 °F 67% 29.89 in 10.0 mi ENE 6.9 mph - 0.00 in   Overcast
4:36 PM 6.8 °F -3.5 °F -0.4 °F 72% 29.72 in 2.5 mi East 5.8 mph - N/A   Haze
4:53 PM 5.0 °F -4.1 °F -0.9 °F 76% 29.94 in 4.0 mi East 4.6 mph - N/A   Haze
5:53 PM 3.9 °F -10.4 °F -0.9 °F 80% 29.99 in 3.0 mi SE 9.2 mph - 0.01 in   Haze
6:03 PM 3.2 °F -11.3 °F -0.4 °F 85% 29.77 in 2.5 mi SE 9.2 mph - 0.00 in Snow Light Snow
6:15 PM 3.2 °F -13.1 °F -0.4 °F 85% 29.78 in 1.5 mi SSE 11.5 mph - 0.00 in Snow Light Snow
6:53 PM 3.9 °F -11.3 °F -0.9 °F 80% 30.04 in 1.0 mi SE 10.4 mph - 0.01 in Snow Light Snow
7:53 PM 3.9 °F -3.4 °F -0.9 °F 80% 30.07 in 1.0 mi East 3.5 mph - 0.01 in Snow Light Snow
8:53 PM 3.0 °F -9.3 °F -0.9 °F 84% 30.09 in 2.0 mi WSW 6.9 mph - 0.01 in Snow Light Snow
9:08 PM 3.2 °F -12.2 °F -2.2 °F 78% 29.84 in 2.5 mi WSW 10.4 mph - 0.00 in Snow Light Snow
9:20 PM 3.2 °F -7.8 °F -0.4 °F 85% 29.84 in 3.0 mi WSW 5.8 mph - 0.00 in Snow Light Snow
9:53 PM 3.9 °F - -2.0 °F 76% 30.10 in 2.0 mi Calm Calm - 0.00 in Snow Light Snow
10:01 PM 3.2 °F -6.2 °F -2.2 °F 78% 29.85 in 1.8 mi ESE 4.6 mph - 0.00 in Snow Light Snow
10:26 PM 1.4 °F -8.3 °F -0.4 °F 92% 29.86 in 2.5 mi SSE 4.6 mph - 0.01 in Snow Light Snow
10:33 PM 1.4 °F -8.3 °F -2.2 °F 85% 29.86 in 2.5 mi SE 4.6 mph - 0.01 in   Overcast
10:41 PM 1.4 °F -8.3 °F -2.2 °F 85% 29.87 in 3.0 mi SE 4.6 mph - 0.01 in   Overcast
10:53 PM 1.0 °F -8.7 °F -2.0 °F 87% 30.13 in 5.0 mi SSE 4.6 mph - 0.01 in   Overcast
11:53 PM 1.0 °F -12.9 °F -5.1 °F 75% 30.13 in 10.0 mi SE 8.1 mph - N/A   Scattered Clouds